Location: Amherst
(42.5000°N, 72.5000°W)
Time: 09:02:33
(UTC-04:00)

ISS - Pass Details

Date: 18 July 2018
Orbit: 402 x 408 km, 51.6° (Epoch: 23 July)

Event Time Altitude Azimuth Distance (km) Brightness Sun altitude
Rises 02:34:08 0° 302° (WNW) 2,330 0.1 -22.6°
Reaches altitude 10° 02:36:41 10° 323° (NW) 1,470 -0.7 -22.4°
Maximum altitude 02:39:01 18° 8° (N) 1,093 -0.8 -22.2°
Drops below altitude 10° 02:41:21 10° 53° (NE) 1,471 -0.1 -22.0°
Sets 02:43:55 0° 74° (ENE) 2,332 0.7 -21.8°
